[[{"header":{"parameterUnit":"m.s-1","parameterCategory":1,"la1":30.2991,"la2":30.254,"lo1":-89.0895,"lo2":-89.0444,"dy":0.0017,"dx":0.0017,"nx":28,"ny":28,"refTime":"2023-08-22T03:00:00:Z","depth":0,"parameterNumber":2,"parameterNumberName":"U-component_of_WINDS"},"data":[0,0,0,0,0,0,0,0,0,0,0,0,0,0,0,0,0,0,0,0,0,0,0,0,0,0,0,0,0,0,0,0,0,0,0,0,0,0,0,0,0,0,0,0,0,0,0,0,0,0,0,0,0,0,0,0,0,0,0.072,0.0721,0,0.0865,0.0866,0.0868,0.091,0.0909,0.0908,0.0908,0.1057,0.1061,0.1066,0,0,0,0,0,0,0,0,0,0,0,0,0,0.0477,0.0481,0.072,0.0721,0.0723,0.0864,0.0866,0.0868,0.091,0.0909,0.0908,0.0907,0.1055,0.1061,0.1067,0,0,0,0,0,0,0,0,0,0,0,0,0,0.0598,0.0482,0.0719,0.0761,0.0766,0.0864,0.0867,0.0869,0.091,0.0909,0.0908,0.0907,0.1053,0.106,0.1067,0.1134,0,0,0.1089,0.1092,0,0,0,0,0,0,0,0,0.0591,0.0607,0.0753,0.0758,0.0764,0.0868,0.0836,0.0958,0.091,0.0856,0.0907,0.0906,0.0995,0.1007,0.1037,0.1141,0.1148,0.1089,0.1094,0.1097,0.1099,0,0,0,0,0,0,0,0.0583,0.0601,0.0777,0.0755,0.0762,0.0772,0.0788,0.0859,0.093,0.086,0.0864,0.088,0.0998,0.103,0.104,0.115,0.1089,0.1096,0.11,0.1103,0.1313,0.1315,0,0,0,0,0,0,0.0567,0.0594,0.0773,0.0781,0.0673,0.0777,0.0795,0.0836,0.0929,0.0943,0.0881,0.0882,0.1018,0.1032,0.1046,0.1128,0.1097,0.1103,0.1107,0.1312,0.1314,0.1315,0,0,0,0,0,0,0.0562,0.0583,0.0767,0.0688,0.0713,0.0782,0.0828,0.0839,0.0871,0.0945,0.0958,0.0901,0.1018,0.1036,0.1111,0.1134,0.1107,0.1113,0.131,0.1312,0.1314,0.1295,0,0,0,0,0,0,0.0555,0.0581,0.0608,0.0689,0.0717,0.083,0.083,0.0843,0.0883,0.0885,0.0967,0.0979,0.1018,0.11,0.1118,0.1143,0.1118,0.1309,0.1311,0.1314,0.1294,0.1296,0.1298,0,0,0,0,0,0.0546,0.0597,0.0609,0.063,0.0752,0.0832,0.0847,0.0891,0.0885,0.0912,0.0959,0.0977,0.1129,0.1108,0.1128,0.1156,0.1307,0.131,0.1313,0.1293,0.1296,0.1298,0,0,0,0,0,0,0.0519,0.0609,0.0623,0.0702,0.0758,0.0838,0.0874,0.0893,0.0953,0.0952,0.1004,0.1022,0.1093,0.1132,0.1107,0.1224,0.1218,0.1226,0.1196,0.1199,0.1201,0.119,0.1124,0,0,0,0,0,0.0521,0.0579,0.0655,0.0717,0.0745,0.0804,0.0841,0.0869,0.093,0.0954,0.1007,0.1065,0.1125,0.1164,0.1225,0.1299,0.1317,0.1328,0.133,0.1332,0.1337,0.1377,0.1382,0.1325,0.1325,0.1325,0,0,0.0529,0.0585,0.0619,0.0713,0.0761,0.0818,0.0825,0.0886,0.0928,0.0964,0.1037,0.1077,0.1145,0.122,0.1256,0.1255,0.1357,0.1336,0.1336,0.1341,0.1381,0.1386,0.1391,0.1327,0.1327,0.1326,0,0,0.0571,0.062,0.0677,0.0723,0.0793,0.0832,0.0845,0.0922,0.0949,0.1024,0.105,0.1101,0.1205,0.1252,0.1289,0.1344,0.1362,0.1362,0.1373,0.1411,0.1415,0.142,0.1438,0.1444,0.1367,0.1367,0.1367,0,0.0572,0.0659,0.0703,0.0762,0.0802,0.0835,0.0891,0.0934,0.1021,0.1047,0.1044,0.1173,0.1222,0.1306,0.1319,0.1348,0.1364,0.1354,0.1411,0.1416,0.1421,0.1438,0.1445,0.1367,0.1367,0.1367,0.1367,0,0.0655,0.0715,0.0752,0.0833,0.0877,0.0935,0.0986,0.1025,0.1048,0.1086,0.116,0.1218,0.1289,0.1311,0.1335,0.1398,0.1395,0.1401,0.1397,0.1425,0.1442,0.1449,0.1366,0.1366,0.1366,0.1366,0,0,0.0687,0.0789,0.0802,0.0838,0.0916,0.0963,0.102,0.1089,0.112,0.1178,0.1226,0.1311,0.1316,0.1358,0.1387,0.1421,0.1457,0.1423,0.1425,0.1426,0.1527,0.1521,0.1529,0.1469,0.1471,0.1472,0.1521,0,0.0738,0.0843,0.0882,0.0967,0.1021,0.1051,0.1101,0.1153,0.119,0.1241,0.1281,0.1339,0.1343,0.1368,0.1402,0.1446,0.1478,0.1443,0.1514,0.1516,0.1495,0.1538,0.1534,0.1577,0.1528,0.1529,0.153,0,0.0813,0.087,0.0959,0.1028,0.1052,0.1096,0.116,0.1209,0.1268,0.1292,0.1336,0.1363,0.1422,0.1412,0.1494,0.1469,0.15,0.1525,0.1528,0.1536,0.1525,0.1547,0.1593,0.1598,0.1542,0.1541,0.154,0,0.0825,0.0924,0.099,0.102,0.1102,0.1131,0.1167,0.1225,0.1262,0.1318,0.1342,0.1404,0.1437,0.1484,0.1525,0.1515,0.1602,0.1597,0.1622,0.1621,0.164,0.1638,0.169,0.166,0.166,0.166,0.166,0,0.0878,0.0932,0.0996,0.1036,0.1096,0.114,0.1197,0.1234,0.1285,0.1332,0.1362,0.1405,0.1457,0.1506,0.1539,0.16,0.1615,0.1635,0.1643,0.1633,0.163,0.1654,0.1652,0.1662,0.1661,0.1661,0.1661,0,0.0903,0.0948,0.1021,0.1092,0.111,0.1151,0.1211,0.125,0.1286,0.1345,0.1361,0.1418,0.1477,0.1523,0.1601,0.1622,0.1686,0.1695,0.1666,0.167,0.1693,0.1689,0.1762,0.1773,0.1735,0.1736,0.1736,0,0.0934,0.0975,0.1049,0.1082,0.1117,0.1171,0.1208,0.1252,0.1289,0.1357,0.1388,0.1449,0.15,0.1593,0.1641,0.1699,0.171,0.1731,0.1719,0.1705,0.1708,0.1705,0.1708,0.1732,0.1733,0.1733,0.1733,0,0.0983,0.1002,0.1055,0.1115,0.1159,0.1208,0.1258,0.1284,0.1336,0.1376,0.1436,0.1476,0.1553,0.1613,0.1676,0.1711,0.173,0.1736,0.1745,0.1734,0.1715,0.1724,0.167,0.1734,0.1734,0.1734,0.1734,0.1734,0.1011,0.1048,0.1105,0.1162,0.1204,0.1249,0.1288,0.1328,0.1379,0.1445,0.1467,0.1529,0.1584,0.167,0.1705,0.1753,0.1754,0.1767,0.177,0.1772,0.177,0.1707,0.1765,0.1765,0.1765,0.1765,0.1765,0,0.1061,0.1098,0.115,0.1218,0.1262,0.1275,0.133,0.1365,0.1419,0.1469,0.1517,0.1585,0.1642,0.1693,0.1751,0.178,0.179,0.1794,0.1792,0.1799,0.1768,0.1753,0.1784,0.1784,0.1784,0.1784,0.1784,0.1784,0.1092,0.1154,0.118,0.1262,0.1299,0.1359,0.1389,0.143,0.1469,0.1543,0.159,0.1622,0.1671,0.1733,0.1785,0.1798,0.1818,0.182,0.1835,0.1804,0.1802,0.18,0.1786,0.1824,0.1824,0.1863,0.1863,0.1863]},{"header":{"parameterUnit":"m.s-1","parameterCategory":1,"la1":30.2991,"la2":30.254,"lo1":-89.0895,"lo2":-89.0444,"dy":0.0017,"dx":0.0017,"nx":28,"ny":28,"refTime":"2023-08-22T03:00:00:Z","depth":0,"parameterNumber":3,"parameterNumberName":"V-component_of_WINDS"},"data":[0,0,0,0,0,0,0,0,0,0,0,0,0,0,0,0,0,0,0,0,0,0,0,0,0,0,0,0,0,0,0,0,0,0,0,0,0,0,0,0,0,0,0,0,0,0,0,0,0,0,0,0,0,0,0,0,0,0,3.4436,3.4436,0,3.4425,3.4425,3.4425,3.4433,3.4434,3.4434,3.4434,3.4422,3.4421,3.442,0,0,0,0,0,0,0,0,0,0,0,0,0,3.4461,3.446,3.4436,3.4436,3.4436,3.4425,3.4425,3.4425,3.4433,3.4434,3.4434,3.4435,3.4422,3.4421,3.442,0,0,0,0,0,0,0,0,0,0,0,0,0,3.445,3.446,3.4436,3.4439,3.4439,3.4425,3.4425,3.4425,3.4433,3.4434,3.4434,3.4435,3.4422,3.4421,3.442,3.4403,0,0,3.4417,3.4417,0,0,0,0,0,0,0,0,3.4451,3.4449,3.4438,3.4438,3.4438,3.4431,3.4429,3.4417,3.4433,3.4435,3.4434,3.4435,3.4424,3.4423,3.442,3.4402,3.4402,3.4417,3.4416,3.4416,3.4416,0,0,0,0,0,0,0,3.4451,3.445,3.4432,3.4438,3.4438,3.4439,3.4438,3.4427,3.4427,3.4435,3.4436,3.4434,3.4424,3.4421,3.442,3.4402,3.4417,3.4416,3.4416,3.4415,3.4366,3.4365,0,0,0,0,0,0,3.4452,3.445,3.4432,3.4431,3.4446,3.4438,3.4437,3.4433,3.4427,3.4427,3.4434,3.4435,3.4422,3.4421,3.4419,3.4396,3.4416,3.4415,3.4414,3.4367,3.4366,3.4365,0,0,0,0,0,0,3.4453,3.445,3.4432,3.4441,3.4439,3.4437,3.4432,3.4432,3.4429,3.4426,3.4426,3.443,3.4423,3.4421,3.4406,3.4396,3.4415,3.4414,3.4368,3.4366,3.4365,3.4352,0,0,0,0,0,0,3.4453,3.4451,3.4445,3.4441,3.4438,3.442,3.4432,3.4432,3.4427,3.4428,3.4423,3.4422,3.4423,3.4408,3.4405,3.4395,3.4413,3.4368,3.4367,3.4366,3.4353,3.435,3.4348,0,0,0,0,0,3.4454,3.4442,3.4445,3.4442,3.4431,3.442,3.4418,3.442,3.4426,3.442,3.4418,3.4422,3.4398,3.4406,3.4404,3.4393,3.4369,3.4367,3.4366,3.4354,3.4351,3.4348,0,0,0,0,0,0,3.4445,3.4441,3.4444,3.443,3.4425,3.4421,3.4413,3.4417,3.441,3.4411,3.4412,3.4411,3.4395,3.4393,3.4402,3.4374,3.4384,3.4382,3.4376,3.4373,3.4371,3.4371,3.4412,0,0,0,0,0,3.4441,3.4433,3.443,3.4418,3.4415,3.4415,3.441,3.4411,3.4406,3.4404,3.4401,3.4395,3.4385,3.4379,3.4371,3.4353,3.435,3.4344,3.4342,3.4339,3.4337,3.4324,3.4321,3.436,3.436,3.436,0,0,3.4433,3.4431,3.4425,3.4416,3.4412,3.4403,3.4413,3.4403,3.4395,3.4402,3.4388,3.4385,3.4379,3.4362,3.4354,3.4359,3.4326,3.4337,3.4336,3.4335,3.4322,3.4319,3.4315,3.4359,3.4359,3.4359,0,0,3.4414,3.4412,3.44,3.4396,3.439,3.439,3.4387,3.4382,3.438,3.4366,3.437,3.4361,3.4345,3.434,3.4335,3.4311,3.4314,3.4308,3.4294,3.4282,3.4279,3.4276,3.4265,3.4261,3.4306,3.4306,3.4306,0,3.4405,3.4392,3.4394,3.4383,3.4378,3.4383,3.4371,3.4366,3.4358,3.4353,3.4359,3.4338,3.4334,3.4315,3.4308,3.4305,3.43,3.4308,3.4279,3.4276,3.4274,3.4263,3.4259,3.4305,3.4305,3.4305,3.4305,0,3.4379,3.437,3.4361,3.4352,3.4346,3.4334,3.4333,3.4327,3.4328,3.4326,3.431,3.4306,3.4295,3.4291,3.4292,3.427,3.4273,3.4279,3.4289,3.4269,3.4259,3.4255,3.4304,3.4304,3.4304,3.4304,0,0,3.4355,3.4346,3.4342,3.4337,3.433,3.4322,3.431,3.4299,3.4292,3.4286,3.4274,3.426,3.4264,3.4259,3.426,3.4249,3.4227,3.4256,3.4255,3.4248,3.4199,3.4193,3.4189,3.4229,3.4229,3.4228,3.4199,0,3.4333,3.4312,3.4313,3.4292,3.4282,3.4286,3.4275,3.4268,3.4266,3.4256,3.4253,3.4242,3.425,3.4246,3.4236,3.4232,3.4216,3.4234,3.4216,3.4215,3.4216,3.4184,3.4178,3.4151,3.4195,3.4194,3.4194,0,3.4306,3.4298,3.4276,3.4268,3.4264,3.4254,3.4243,3.4234,3.4226,3.4224,3.4217,3.4219,3.4204,3.4215,3.4193,3.4205,3.4197,3.4194,3.4193,3.419,3.4202,3.4178,3.4143,3.4138,3.4188,3.4189,3.4189,0,3.4287,3.4271,3.4255,3.4251,3.4242,3.4234,3.423,3.4223,3.4215,3.4206,3.42,3.4189,3.4182,3.4173,3.417,3.4179,3.4147,3.4159,3.4144,3.4144,3.4136,3.4136,3.4097,3.4135,3.4135,3.4135,3.4135,0,3.4262,3.4248,3.4246,3.4236,3.422,3.422,3.4204,3.42,3.4193,3.4181,3.4184,3.4173,3.4171,3.4159,3.4157,3.4137,3.4135,3.4132,3.4131,3.4131,3.4131,3.4125,3.4126,3.4134,3.4134,3.4134,3.4134,0,3.4238,3.4237,3.4219,3.4212,3.4209,3.4197,3.419,3.418,3.4177,3.4162,3.4158,3.4153,3.4138,3.4136,3.4118,3.4117,3.4093,3.4095,3.4096,3.4095,3.4079,3.408,3.4033,3.4026,3.407,3.407,3.4069,0,3.4222,3.4211,3.4202,3.4194,3.419,3.4178,3.417,3.4169,3.4161,3.4149,3.4139,3.4125,3.4113,3.4089,3.4083,3.4069,3.4069,3.4054,3.4067,3.4066,3.4066,3.4066,3.4063,3.4051,3.4051,3.405,3.405,0,3.4193,3.4192,3.4181,3.4169,3.4159,3.415,3.4141,3.4134,3.4132,3.4122,3.4106,3.4097,3.4079,3.4063,3.4049,3.4043,3.4045,3.4046,3.4041,3.4039,3.4039,3.4036,3.4086,3.4047,3.4047,3.4047,3.4047,3.4047,3.417,3.416,3.4151,3.4138,3.4131,3.4122,3.4111,3.4106,3.4094,3.4078,3.4079,3.4061,3.405,3.4031,3.4024,3.4009,3.4014,3.4008,3.4006,3.4003,3.4001,3.4043,3.4007,3.4007,3.4007,3.4007,3.4007,0,3.4139,3.4133,3.4121,3.4108,3.4097,3.4101,3.409,3.408,3.4065,3.4055,3.4043,3.4024,3.4008,3.4,3.3984,3.3973,3.3974,3.3969,3.3969,3.3967,3.3999,3.4003,3.3969,3.3969,3.3969,3.3969,3.3969,3.3969,3.4121,3.4103,3.41,3.4077,3.4071,3.4054,3.4048,3.4038,3.403,3.4009,3.3996,3.3991,3.3981,3.3963,3.3948,3.3946,3.3939,3.3933,3.3931,3.3961,3.3965,3.3969,3.3973,3.3932,3.3932,3.39,3.39,3.39]}]]